Other Public Products
Issued by NWS Grand Forks, ND

Home | Current Version | Previous Version | Text Only | Print | Product List | Glossary Off
Versions: 1 2 3 4 5 6 7 8 9 10 11 12 13 14 15 16 17 18 19 20 21 22 23 24 25 26 27 28 29 30 31 32 33 34 35 36 37 38 39 40 41 42 43 44 45 46 47 48 49 50

000
FPUS83 KFGF 121810
OPUFGF
PRAIRIE TO PINES WEATHER ROUNDUP
NATIONAL WEATHER SERVICE EASTERN NORTH DAKOTA/GRAND FORKS ND
1200 PM CST FRI FEB 12 2016

 **SATELLITE DATA USED TO AUGMENT SKY COVER AT AUTOMATED STATIONS**
 *****  WEATHER ACROSS EASTERN NORTH DAKOTA  *****

CITY           SKY/WX    TMP DP  RH WIND       PRES   REMARKS
GRAND FORKS    PTSUNNY   -2 -13  59 N18       30.68R WCI -24
6HR MIN TEMP:  -4; 6HR MAX TEMP:   0;

GRAND FORKS AF CLOUDY    -2 -11  65 N16       30.67S WCI -23
GRAND CITY NWS NOT AVBL
BUXTON         NOT AVBL
DEVILS LAKE    CLOUDY    -7 -13  75 N9        30.64R WCI -24
6HR MIN TEMP: -12; 6HR MAX TEMP:  -7;

FARGO          MOSUNNY    1 -10  60 N17       30.65R WCI -19
6HR MIN TEMP:  -1; 6HR MAX TEMP:   2;

WAHPETON ARPT  CLOUDY     3  -8  60 N15G25    30.63R WCI -15
$$

 *****  WEATHER ACROSS CENTRAL AND WESTERN NORTH DAKOTA  *****

CITY           SKY/WX    TMP DP  RH WIND       PRES   REMARKS
JAMESTOWN      PTSUNNY   -1 -10  65 N14       30.62R WCI -20
6HR MIN TEMP:  -2; 6HR MAX TEMP:   2;

BISMARCK       CLOUDY    10  -1  61 E8        30.60F WCI  -2
6HR MIN TEMP:   4; 6HR MAX TEMP:  13;

MINOT          CLOUDY     7  -8  50 N3        30.61R
6HR MIN TEMP:  -4; 6HR MAX TEMP:   7;

MINOT AFB      SUNNY     10  -7  47 CALM      30.61R
6HR MIN TEMP:  -8; 6HR MAX TEMP:  10;

GARRISON         N/A      4  -4  69 CALM      30.58R
6HR MIN TEMP:  -2; 6HR MAX TEMP:   5;

WILLISTON      CLOUDY     9  -4  55 VRB5      30.56S WCI   1
6HR MIN TEMP:  -1; 6HR MAX TEMP:  10;

DICKINSON      CLOUDY     9  -2  61 SE8       30.47S WCI  -3
6HR MIN TEMP:   6; 6HR MAX TEMP:  16; 6HR PCP: TRACE;

HETTINGER      CLOUDY    13   7  77 E8        30.49S WCI   2
6HR MIN TEMP:  12; 6HR MAX TEMP:  20; 6HR PCP: TRACE;

$$

 *****  OTHER OBSERVATIONS NORTHEAST NORTH DAKOTA  *****

CITY           SKY/WX    TMP DP  RH WIND       PRES   REMARKS
WALHALLA       FAIR      -2 N/A N/A NW13      30.68R WCI -21
LANGDON        FAIR      -8 -15  71 NW9       30.59S WCI -25
CAVALIER       FAIR      -4 -11  71 N15       30.68R WCI -25
GRAFTON        FAIR      -6 -13  71 NW15G22   30.70R WCI -27
CANDO          NOT AVBL
FORT TOTTEN      N/A     -2 -12  64 N6        29.95S WCI -14
ROLLA          FAIR      -4 -11  71 N12       30.58S WCI -22
RUGBY          FAIR      -2 -11  65 CALM      30.62S
 ***** THE ABOVE OBSERVATIONS ARE NON NWS ARE NOT QUALITY
        CONTROLLED AND MAY MIS-REPORT RAIN FOR SNOW...
$$

 *****  OTHER OBSERVATIONS SOUTHEAST NORTH DAKOTA *****

CITY           SKY/WX    TMP DP  RH WIND       PRES   REMARKS
COOPERSTOWN    NOT AVBL
VALLEY CITY    FAIR      -2  -9  71 N14       30.63S WCI -21
OAKES          FAIR       0  -8  71 N14       30.63R WCI -19
GWINNER        FAIR       3  -6  66 N15       30.63R WCI -15
SHEYENNE NWR     N/A      0 -13  54 N10       29.95S WCI -16
BUFFALO        NOT AVBL
WYNDMERE         N/A      1  -6  71 N16         N/A  WCI -18
 ***** THE ABOVE OBSERVATIONS ARE NON NWS ARE NOT QUALITY
       CONTROLLED AND MAY MIS-REPORT RAIN FOR SNOW...
$$

  *****  WEATHER ACROSS NORTHERN MINNESOTA  *****

CITY           SKY/WX    TMP DP  RH WIND       PRES   REMARKS
FLAG ISLAND    SUNNY     -9 -18  64 NW15      30.52R WCI -31
WARROAD        MOSUNNY   -8 -18  59 NW12G18   30.55R WCI -27
ROSEAU         MOSUNNY   -8 -15  71 W10       30.57S WCI -26
HALLOCK        SUNNY     -8 -17  65 N20       30.65R WCI -32
THF RVR FALLS  SUNNY     -6 -20  49 NW16      30.60R WCI -28
6HR MIN TEMP:  -8; 6HR MAX TEMP:  -6;

HALSTAD        NOT AVBL
FOSSTON        SUNNY     -2 -17  50 NW13      30.56R WCI -21
BAUDETTE       SUNNY     -9 -20  58 NW16      30.50R WCI -32
6HR MIN TEMP: -13; 6HR MAX TEMP:  -9;

WASKISH        SUNNY     -4 -17  54 W12       30.50S WCI -22
CROOKSTON      SUNNY     -6 -11  77 N16       30.66R WCI -28
$$
  *****  WEATHER ACROSS CENTRAL AND WEST MINNESOTA  *****

CITY           SKY/WX    TMP DP  RH WIND       PRES   REMARKS
BEMIDJI        SUNNY     -5 -16  57 NW13      30.50R WCI -24
PARK RAPIDS    SUNNY      0 -16  46 NW20G30   30.47R WCI -22
6HR MIN TEMP:  -5; 6HR MAX TEMP:   1;

WADENA         SUNNY      1 -11  55 N12       30.49R WCI -15
DETROIT LAKES  SUNNY      0  -9  65 N16       30.55R WCI -21
MOORHEAD       SUNNY      0 -11  60 N18       30.64S WCI -22
FERGUS FALLS   SUNNY      0  -9  65 N20G26    30.62R WCI -22
ELBOW LAKE     FAIR       0  -9  65 N21       30.55S HAZE    WCI -22
6HR MIN TEMP:  -1; 6HR MAX TEMP:   2;

MORRIS MN      MOSUNNY    3  -6  66 N26       30.55R WCI -20
STAPLES        SUNNY      1 -15  46 N15       30.48R WCI -18
WHEATON        PTSUNNY    3  -2  78 NW17G24   30.63R HAZE    WCI -17
$$
  *****  WEATHER ELSEWHERE ACROSS MINNESOTA  *****

CITY           SKY/WX    TMP DP  RH WIND       PRES   REMARKS
DULUTH         MOSUNNY   -2 -17  49 N16G25    30.33R WCI -23
6HR MIN TEMP:  -4; 6HR MAX TEMP:   0;

INTRNTL FALLS  SUNNY     -6 -20  50 W14       30.45R WCI -26
6HR MIN TEMP: -12; 6HR MAX TEMP:  -6;

ELY            SUNNY     -8 -18  59 NW13G20   30.33R WCI -28
CLOQUET        SUNNY      0 -17  46 NW18G24   30.37R WCI -22
BRAINERD       SUNNY      2 -13  49 NW20      30.46R WCI -19
6HR MIN TEMP:  -3; 6HR MAX TEMP:   2;

HIBBING        SUNNY     -6 -16  61 NW18      30.39R WCI -29
6HR MIN TEMP:  -9; 6HR MAX TEMP:  -5; 6HR PCP: TRACE;

ALEXANDRIA     SUNNY      1 -11  57 N14       30.49R WCI -17
6HR MIN TEMP:   0; 6HR MAX TEMP:   3;

SAINT CLOUD    SUNNY      4 -10  52 N17G24    30.47R WCI -16
6HR MIN TEMP:   1; 6HR MAX TEMP:   5;

MINNEAPOLIS    SUNNY     10  -5  50 NW15G25   30.44R WCI  -7
6HR MIN TEMP:   7; 6HR MAX TEMP:  10;

$$

  *****  WEATHER ACROSS SOUTH DAKOTA  *****

CITY           SKY/WX    TMP DP  RH WIND       PRES   REMARKS
SIOUX FALLS    MOSUNNY   11   0  61 N15       30.53R WCI  -5
6HR MIN TEMP:  11; 6HR MAX TEMP:  15;

BROOKINGS      SUNNY      7  -3  64 N17       30.52R WCI -12
WATERTOWN      SUNNY      4  -6  63 N18       30.53R WCI -16
6HR MIN TEMP:   3; 6HR MAX TEMP:  10;

HURON          SUNNY     13   3  64 N16       30.60R WCI  -3
6HR MIN TEMP:  12; 6HR MAX TEMP:  15; 6HR PCP: TRACE;

SISSETON         N/A      2  -7  66 N21       30.61R WCI -20
ABERDEEN       SUNNY      7  -3  64 N17       30.63R WCI -12
6HR MIN TEMP:   7; 6HR MAX TEMP:  13; 6HR PCP: TRACE;

MITCHELL       PTSUNNY   15   6  67 N13       30.60R WCI   1
PIERRE         CLOUDY    22  14  71 NE9       30.54R WCI  12
6HR MIN TEMP:  21; 6HR MAX TEMP:  22; 6HR PCP: TRACE;

MOBRIDGE       SUNNY     14   5  67 N10       30.54R WCI   1
RAPID CITY     FOG       27  26  96 SE10      30.41S VSB 3/4 WCI  17
6HR MIN TEMP:  27; 6HR MAX TEMP:  30;

$$

  *****  SOME WEATHER IN NEARBY STATES *****

CITY           SKY/WX    TMP DP  RH WIND       PRES   REMARKS
GLASGOW MT     CLOUDY    15   9  76 E21       30.42F WCI  -2
6HR MIN TEMP:  15; 6HR MAX TEMP:  20;

GREAT FALLS MT MOSUNNY   39  34  82 E8        30.15F
6HR MIN TEMP:  33; 6HR MAX TEMP:  39; 6HR PCP: TRACE;

CHEYENNE WY    CLOUDY    46  26  45 SE3       30.31F
6HR MIN TEMP:  33; 6HR MAX TEMP:  46;

SCOTTSBLUFF NE CLOUDY    35  29  78 E14       30.37S
6HR MIN TEMP:  28; 6HR MAX TEMP:  37;

OMAHA NE       MOSUNNY   25  12  58 N21G28    30.51R WCI  11
6HR MIN TEMP:  20; 6HR MAX TEMP:  26;

DES MOINES IA  MOSUNNY   20   3  48 N15       30.45R WCI   6
6HR MIN TEMP:  19; 6HR MAX TEMP:  21; 6HR PCP: TRACE;

DAVENPORT IA   SUNNY     22   8  55 NW26G36   30.29S WCI   5
6HR MIN TEMP:  19; 6HR MAX TEMP:  23; 6HR PCP: TRACE;

CHICAGO IL     PTSUNNY   21   8  57 NW18G25   30.15S WCI   6
6HR MIN TEMP:  19; 6HR MAX TEMP:  22; 6HR PCP: TRACE;

EAU CLAIRE WI  MOSUNNY    9  -6  50 NW20G26   30.33R WCI -10
6HR MIN TEMP:   8; 6HR MAX TEMP:  12;

LA CROSSE WI   SUNNY     15   1  53 NW21      30.31R WCI  -2
6HR MIN TEMP:  13; 6HR MAX TEMP:  15; 6HR PCP: TRACE;

$$

  *****  SOME NATIONAL WEATHER *****

CITY           SKY/WX    TMP DP  RH WIND       PRES   REMARKS
LA GUARDIA NY  PTSUNNY   26   0  32 S10       30.13F WCI  16      C1F1C2F2C3F3C4F4C5F5C6F6C7F7C8F8C9F9CaFaCbFbCcFcCdFdCe!


USA.gov is the U.S. government's official web portal to all federal, state and local government web resources and services.